Location: Audinghen
(50.8518°N, 1.6129°E)
Time: 04:53:57
(UTC+00:00)

Cosmos 1536 Rocket - Pass Details

Date: 07 August 2020
Orbit: 605 x 633 km, 82.5° (Epoch: 19 September)

Event Time Altitude Azimuth Distance (km) Brightness Sun altitude
Rises 01:41:15 0° 344° (NNW) 2,885 7.7 -19.2°
Reaches altitude 10° 01:43:33 10° 338° (NNW) 1,973 6.7 -19.0°
Maximum altitude 01:47:40 42° 267° (W) 871 4.0 -18.8°
Enters shadow 01:48:26 38° 239° (WSW) 931 4.0 -18.7°
